Location: Stonelick Lake State Park
(39.2170°N, 84.0850°W)
Time: 14:07:43
(UTC-04:00)

Daily predictions for brighter satellites

Satellite Brightness Start Highest point End
(mag) Time Altitude Azimuth Time Altitude Azimuth Time Altitude Azimuth
Cosmos 1437 3.8 21:33:10 10° SSE 21:36:00 27° E 21:38:51 10° NNE
Cosmos 1151 Rocket 3.6 21:32:01 10° N 21:36:07 41° E 21:40:13 10° SSE
H-2A R/B 3.5 21:34:06 10° S 21:37:51 54° W 21:41:35 10° NNW
ATLAS 2AS CENTAUR R/B 4.5 21:35:27 10° ESE 21:37:54 12° E 21:40:25 10° E
USA 186 3.2 21:42:21 10° SSW 21:44:16 25° W 21:46:16 10° NW
COSMOS 2428 3.7 21:39:17 10° N 21:44:20 32° ENE 21:49:22 10° ESE
Cosmos 1437 Rocket 2.7 21:41:17 10° N 21:45:07 82° E 21:48:59 10° S
ERS-1 Rocket 3.0 21:41:24 10° SSE 21:46:26 81° ENE 21:51:29 10° N
Envisat 3.4 21:43:16 10° SE 21:48:09 49° ENE 21:53:03 10° N
Cosmos 2219 Rocket 4.0 21:44:23 10° N 21:48:09 18° NE 21:51:54 10° E
Cosmos 2266 Rocket 4.0 21:42:27 10° S 21:48:41 67° E 21:54:50 10° NNE
Cosmos 1939 Rocket 3.0 21:45:26 10° SSE 21:49:16 55° ENE 21:53:05 10° N
ERBS 4.4 21:49:50 10° SE 21:50:08 10° ESE 21:50:35 10° ESE
ATLAS CENTAUR R/B 4.2 21:54:21 10° W 21:55:41 11° WSW 21:57:00 10° SW
Cosmos 2315 Rocket 4.3 21:53:20 10° N 21:59:20 49° ENE 22:05:17 10° SSE
NOSS 3-1 (C) 3.5 21:55:06 10° SSW 22:00:43 55° ESE 22:06:54 10° NE
Cosmos 1726 3.8 21:58:38 10° NNE 22:01:31 20° ENE 22:03:46 13° ESE
SL-23 DEB 4.3 21:56:24 10° NW 22:01:53 62° NNE 22:05:00 13° ESE
OTV 4 2.1 22:01:31 10° SSW 22:03:28 16° SSE 22:04:06 15° SE
OAO 2 Rocket 4.0 21:58:40 10° SW 22:03:30 36° SSE 22:08:22 10° E
Cosmos 2112 Rocket 4.1 21:58:25 10° NNW 22:03:39 67° ENE 22:08:34 12° SSE
CZ-4 SHROUD 3.9 22:02:06 14° SE 22:04:29 37° ENE 22:07:25 10° N
ALOS 4.3 22:02:52 10° SSW 22:06:49 27° W 22:10:46 10° NW
H-2A R/B 2.2 22:02:57 10° SSE 22:07:29 84° WSW 22:12:01 10° NNW
Cosmos 1707 Rocket 4.3 22:06:05 10° N 22:10:08 37° ENE 22:13:15 15° SE
Cosmos 2298 Rocket 4.3 22:07:54 10° S 22:12:59 48° ESE 22:18:05 10° NNE
Cosmos 1666 Rocket 4.2 22:09:24 12° SSE 22:13:00 36° E 22:17:04 10° NNE
Cosmos 1328 3.7 22:10:24 10° S 22:14:19 80° E 22:18:18 10° N
Tiangong 1 0.9 22:11:38 10° WSW 22:14:45 75° SSE 22:17:49 10° ENE
Cosmos 2219 3.2 22:09:04 10° SSW 22:14:49 83° ESE 22:20:35 10° NNE
Meteor 1-4 Rocket 4.1 22:16:32 10° NNE 22:19:34 23° ENE 22:21:09 17° ESE
Cosmos 2237 Rocket 3.8 22:16:59 10° N 22:21:21 22° NE 22:25:15 12° E
Cosmos 2322 Rocket 4.4 22:19:38 10° NW 22:23:35 20° W 22:27:33 10° SW
DELTA 2 R/B (1) 4.0 22:19:38 10° W 22:24:57 48° SSW 22:28:40 19° SE
Cosmos 2322 4.1 22:19:35 10° NNW 22:25:12 60° WSW 22:30:31 11° S
Cosmos 1271 Rocket 4.0 22:23:37 10° NNE 22:26:56 27° ENE 22:28:32 20° ESE
Aureole 3 4.4 22:21:28 10° S 22:28:09 83° W 22:33:27 10° N
MetOp-B 4.1 22:23:58 15° SSE 22:28:27 75° ENE 22:33:49 10° N
CZ-4B R/B 3.6 22:26:13 10° NNE 22:31:25 58° E 22:36:13 11° S
Cosmos 2360 Rocket 2.9 22:26:45 10° NNW 22:32:13 50° WSW 22:37:25 11° S
Cosmos 1703 4.1 22:32:28 24° SE 22:33:56 31° E 22:37:24 10° NNE
SL-14 R/B 3.3 22:31:35 17° S 22:34:31 62° E 22:38:30 10° NNE
Meteor 1-27 4.2 22:33:29 10° N 22:39:11 78° E 22:43:18 19° SSE
Cosmos 1680 Rocket 4.3 22:34:42 10° NNW 22:39:44 48° WSW 22:44:24 12° S
H-2A R/B 3.3 22:36:57 18° ESE 22:39:50 29° ENE 22:44:26 10° N
PSLV R/B 3.7 22:38:58 20° S 22:40:51 52° W 22:43:51 10° NNW
Cosmos 1626 3.7 22:41:26 19° E 22:41:38 19° E 22:44:19 10° NE
SPOT 5 3.3 22:41:59 14° S 22:45:49 56° W 22:50:34 10° NNW
Delta 2 Rocket 3.2 22:44:34 10° W 22:48:00 43° S 22:48:40 38° SSE
Cosmos 1898 Rocket 3.4 22:45:52 10° SSW 22:51:02 88° WNW 22:56:17 10° NNE
YAOGAN 6 2.8 22:50:10 26° S 22:52:05 69° W 22:55:41 10° NNW
SPOT 1/Viking Rocket 3.5 22:48:50 23° SSE 22:52:07 86° ENE 22:57:18 10° NNW
Cosmos 858 Rocket 4.4 22:50:10 10° SSW 22:55:23 89° WNW 23:00:37 10° NNE
Lacrosse 4 Rocket 3.9 22:54:00 10° NNE 22:56:13 13° NE 22:58:26 10° ENE
Cosmos 2227 Rocket 2.4 22:55:43 22° S 22:59:08 49° ESE 23:04:35 10° NNE
Cosmos 2058 4.1 22:55:49 10° SSW 22:59:40 40° W 23:03:33 10° N
Cosmos 2150 Rocket 4.3 22:55:59 10° SSW 23:01:24 71° WNW 23:06:53 10° NNE
Cosmos 1300 3.5 22:57:56 10° NNW 23:01:40 48° W 23:03:49 22° SSW
NOSS 3-1 (A) 3.7 22:59:24 10° SW 23:05:15 69° NW 23:11:45 10° NNE
Sich 1 3.5 23:03:04 16° SSW 23:06:34 62° W 23:10:56 10° N
Cosmos 292 Rocket 3.7 23:01:54 10° NNW 23:06:41 86° ENE 23:08:39 36° SSE
Cosmos 2242 Rocket 3.6 23:02:50 10° N 23:07:20 86° W 23:09:20 33° S
Cosmos 1862 Rocket 4.1 23:04:57 10° N 23:09:05 42° ENE 23:10:02 36° ESE
CARTOSAT-1 4.1 23:08:07 34° ESE 23:09:17 43° ENE 23:13:23 10° N
COSMOS 2455 4.1 23:05:35 10° N 23:10:48 30° NE 23:14:03 19° E
Cosmos 1633 Rocket 3.6 23:08:22 17° SSW 23:11:40 57° W 23:15:59 10° N
Landsat 7 3.8 23:10:19 37° SE 23:12:08 68° ENE 23:16:52 10° N
SAR-Lupe-2 4.4 23:15:11 34° E 23:15:24 34° ENE 23:18:40 10° N
USA 245 3.7 23:15:30 29° W 23:15:30 29° W 23:17:32 10° NW
SL-16 R/B 3.6 23:10:55 10° N 23:15:40 26° ENE 23:18:12 19° E
Cosmos 2333 Rocket 2.3 23:11:15 10° NNW 23:17:00 68° ENE 23:19:24 36° SE
Cosmos 1346 3.3 23:20:05 61° NE 23:20:05 61° NE 23:22:43 10° NNE
FALCON 9 R/B 4.0 22:52:55 10° W 23:21:50 71° S 23:27:16 21° ESE
Cosmos 1455 2.2 23:20:22 10° N 23:24:08 62° E 23:24:28 59° ESE
BREEZE-M DEB (TANK) 3.9 23:22:46 10° NNW 23:24:40 26° NNE 23:25:19 23° ENE
ARGOS 3.6 23:22:16 26° S 23:25:10 57° W 23:30:29 10° NNW
Cosmos 2297 Rocket 2.2 23:23:49 36° S 23:25:57 58° ESE 23:31:30 10° NNE
ERBS 2.7 23:23:01 10° SW 23:26:30 65° NW 23:29:58 10° NE
DELTA 2 DEB (DPAF) 4.1 23:25:18 44° S 23:26:43 78° WSW 23:31:13 10° NNW
ATLAS 2AS CENTAUR R/B 2.9 23:20:03 10° SSW 23:27:23 71° ESE 23:35:21 10° NE
Terra 1.8 23:26:42 46° SE 23:28:00 68° ENE 23:32:44 10° N
COSMOS 2428 3.8 23:23:27 10° NW 23:28:34 35° WSW 23:31:38 21° SSW
DMSP B5D2-2 4.0 23:27:09 10° NNE 23:32:23 71° ESE 23:34:06 42° S
Cosmos 2219 Rocket 2.3 23:27:03 10° NNW 23:32:38 68° WSW 23:34:43 38° S
Spot 4 4.0 23:34:28 48° SE 23:35:36 63° ENE 23:40:25 10° N
Cosmos 1726 4.2 23:33:49 10° NW 23:36:48 22° W 23:38:27 17° SW
IGS 5A 3.3 23:36:25 64° SE 23:36:58 77° ENE 23:41:09 10° N
ATLAS 3B R/B 3.2 23:35:26 10° NNW 23:42:15 51° NE 23:45:16 30° ESE
OAO 2 Rocket 3.4 23:42:48 10° WSW 23:48:00 55° S 23:48:06 55° S
COS B Rocket 4.4 23:46:33 10° NNE 23:49:36 33° ENE 23:49:36 33° ENE
Cosmos 1869 3.3 23:46:18 10° N 23:50:22 76° W 23:50:34 73° SW
Tiangong 1 2.4 23:48:29 10° WNW 23:51:01 39° NNW 23:51:01 39° NNW
Cosmos 1980 3.8 23:47:54 10° NNW 23:53:29 64° WSW 23:55:01 46° SSW
